TimeEST,TemperatureF,Dew PointF,Humidity,Sea Level PressureIn,VisibilityMPH,Wind Direction,Wind SpeedMPH,Gust SpeedMPH,PrecipitationIn,Events,Conditions,WindDirDegrees,DateUTC
12:02 AM,26.6,10.4,51,29.63,10.0,West,17.3,36.8,N/A,,Partly Cloudy,280,2013-02-21 05:02:00
12:54 AM,26.1,12.9,58,29.65,10.0,WSW,8.1,-,N/A,,Partly Cloudy,250,2013-02-21 05:54:00
1:54 AM,25.0,12.0,58,29.65,10.0,West,8.1,-,N/A,,Clear,260,2013-02-21 06:54:00
2:54 AM,24.1,12.0,60,29.68,10.0,NW,8.1,-,N/A,,Partly Cloudy,310,2013-02-21 07:54:00
3:54 AM,21.9,7.0,53,29.68,10.0,WNW,17.3,28.8,N/A,,Clear,300,2013-02-21 08:54:00
4:54 AM,19.9,6.1,55,29.69,10.0,West,10.4,21.9,N/A,,Clear,270,2013-02-21 09:54:00
5:54 AM,18.0,3.9,54,29.70,10.0,West,9.2,20.7,N/A,,Clear,260,2013-02-21 10:54:00
6:54 AM,18.0,3.0,52,29.73,10.0,West,6.9,-,N/A,,Clear,280,2013-02-21 11:54:00
7:54 AM,19.9,1.9,46,29.75,10.0,WNW,5.8,-,N/A,,Partly Cloudy,290,2013-02-21 12:54:00
8:54 AM,23.0,3.9,44,29.77,10.0,WNW,4.6,-,0.00,,Mostly Cloudy,290,2013-02-21 13:54:00
9:54 AM,23.0,3.9,44,29.78,10.0,Variable,6.9,-,0.00,,Overcast,0,2013-02-21 14:54:00
10:54 AM,24.1,9.0,53,29.80,10.0,NNW,9.2,-,N/A,,Overcast,340,2013-02-21 15:54:00
11:20 AM,23.0,10.4,59,29.78,6.0,NNW,4.6,-,0.00,Snow,Light Snow,330,2013-02-21 16:20:00
11:50 AM,24.8,12.2,59,29.78,9.0,Variable,5.8,-,0.00,,Overcast,0,2013-02-21 16:50:00
1:54 PM,27.0,10.0,49,29.83,10.0,North,6.9,-,N/A,,Overcast,350,2013-02-21 18:54:00
2:54 PM,27.0,10.0,49,29.86,10.0,NNW,8.1,18.4,N/A,,Overcast,340,2013-02-21 19:54:00
3:54 PM,27.0,10.9,51,29.89,10.0,North,15.0,25.3,N/A,,Overcast,350,2013-02-21 20:54:00
4:54 PM,26.1,12.0,55,29.94,10.0,North,12.7,-,N/A,,Overcast,350,2013-02-21 21:54:00
5:54 PM,25.0,12.0,58,30.00,10.0,NNW,16.1,24.2,N/A,,Scattered Clouds,340,2013-02-21 22:54:00
6:54 PM,26.1,14.0,60,30.04,10.0,North,11.5,18.4,N/A,,Overcast,350,2013-02-21 23:54:00
7:54 PM,27.0,14.0,58,30.08,10.0,North,12.7,19.6,N/A,,Overcast,360,2013-02-22 00:54:00
8:54 PM,26.1,14.0,60,30.12,10.0,NNW,11.5,21.9,N/A,,Clear,330,2013-02-22 01:54:00
9:54 PM,26.1,15.1,63,30.14,10.0,NNW,10.4,18.4,N/A,,Clear,330,2013-02-22 02:54:00
10:54 PM,26.1,16.0,66,30.15,10.0,NNW,8.1,-,N/A,,Clear,340,2013-02-22 03:54:00
11:54 PM,27.0,17.1,66,30.21,10.0,West,4.6,-,N/A,,Clear,280,2013-02-22 04:54:00